Mount Shasta, CA

11:27 AM PDT on October 21, 2017 (GMT -0700)
Mount Shasta

Weather History for KMHS - January, 2015

Change the Weather History Date:

Tuesday, January 27, 2015

  Actual Average Record
Temperature  
Mean Temperature 44 °F 37 °F  
Max Temperature 52 °F 46 °F 66 °F (1920)
Min Temperature 36 °F 27 °F 7 °F (1957)
Degree Days  
Heating Degree Days 21 28  
Month to date heating degree days 603 792  
Since 1 July heating degree days 2346 3114  
Cooling Degree Days 0 0  
Month to date cooling degree days 0 0  
Year to date cooling degree days 0 0  
Moisture  
Dew Point 36 °F    
Average Humidity 75    
Maximum Humidity 92    
Minimum Humidity 59    
Precipitation  
Precipitation 0.00 in 0.21 in 2.25 in (1954)
Month to date precipitation 0.48 6.22  
Year to date precipitation 0.48 6.22  
Sea Level Pressure  
Sea Level Pressure 30.23 in    
Wind  
Wind Speed 2 mph (ESE)    
Max Wind Speed 8 mph    
Max Gust Speed 17 mph    
Visibility 10 miles    
Events      
T = Trace of Precipitation, MM = Missing Value Source: NWS Daily Summary

Daily Weather History Graph

Daily Weather History Graph

Search for Another Location

Airport or City:

Trip Planner

Search our weather history database for the weather conditions in past years. The results will help you decide how hot, cold, wet, or windy it might be!

Date:

Astronomy

Jan. 27, 2015 Rise Set
Actual Time 7:25 AM PST 5:19 PM PST
Civil Twilight 6:55 AM PST 5:48 PM PST
Nautical Twilight 6:22 AM PST 6:22 PM PST
Astronomical Twilight 5:49 AM PST 6:54 PM PST
Moon 11:47 AM PST (1/27) 12:57 AM PST (1/27)
Length of Visible Light 10h 53m
Length of Day
9h 54m
First Quarter, 57% of the Moon is Illuminated
Jan 27
First Quarter
Feb 3
Full
Feb 11
Last Quarter
Feb 18
New
Feb 25
First Quarter

Hourly Weather History & Observations

Time (PST) Temp. Windchill Dew Point Humidity Pressure Visibility Wind Dir Wind Speed Gust Speed Precip Events Conditions
12:56 AM 37.9 °F - 34.0 °F 86% 30.08 in 5.0 mi Calm Calm - N/A   Clear
1:56 AM 37.9 °F - 34.0 °F 86% 30.08 in 9.0 mi Calm Calm - N/A   Clear
2:56 AM 39.0 °F - 35.1 °F 86% 30.10 in 10.0 mi Calm Calm - N/A   Clear
3:56 AM 39.0 °F - 35.1 °F 86% 30.11 in 10.0 mi Calm Calm - N/A   Clear
4:56 AM 39.9 °F - 36.0 °F 86% 30.11 in 10.0 mi Calm Calm - N/A   Clear
5:56 AM 37.9 °F - 34.0 °F 86% 30.14 in 10.0 mi Calm Calm - N/A   Clear
6:56 AM 36.0 °F - 33.1 °F 89% 30.17 in 7.0 mi Calm Calm - N/A   Clear
7:56 AM 39.0 °F - 36.0 °F 89% 30.19 in 10.0 mi Calm Calm - N/A   Clear
8:56 AM 48.0 °F - 37.9 °F 68% 30.21 in 10.0 mi ESE 3.5 mph - N/A   Clear
9:56 AM 48.9 °F - 37.9 °F 66% 30.24 in 10.0 mi Variable 4.6 mph - N/A   Clear
10:56 AM 52.0 °F - 37.9 °F 59% 30.26 in 10.0 mi SE 6.9 mph - N/A   Clear
11:56 AM 50.0 °F - 37.0 °F 61% 30.26 in 10.0 mi Variable 3.5 mph - N/A   Clear
12:56 PM 50.0 °F - 37.0 °F 61% 30.26 in 10.0 mi Variable 4.6 mph - N/A   Partly Cloudy
1:56 PM 50.0 °F - 37.0 °F 61% 30.25 in 10.0 mi Variable 5.8 mph - N/A   Overcast
2:56 PM 48.9 °F - 37.0 °F 64% 30.26 in 10.0 mi Variable 4.6 mph - N/A   Scattered Clouds
3:56 PM 48.0 °F - 36.0 °F 63% 30.27 in 10.0 mi Variable 3.5 mph - N/A   Scattered Clouds
4:56 PM 46.0 °F 43.9 °F 36.0 °F 68% 30.28 in 10.0 mi Variable 4.6 mph - N/A   Overcast
5:56 PM 46.0 °F 44.8 °F 36.0 °F 68% 30.31 in 10.0 mi ESE 3.5 mph - N/A   Scattered Clouds
6:56 PM 46.0 °F 44.8 °F 36.0 °F 68% 30.32 in 10.0 mi Variable 3.5 mph - N/A   Clear
7:56 PM 45.0 °F - 36.0 °F 71% 30.33 in 10.0 mi Calm Calm - N/A   Clear
8:56 PM 43.0 °F - 36.0 °F 76% 30.33 in 10.0 mi Calm Calm - N/A   Scattered Clouds
9:56 PM 42.1 °F - 36.0 °F 79% 30.33 in 10.0 mi Calm Calm - N/A   Overcast
10:56 PM 41.0 °F - 37.0 °F 86% 30.34 in 10.0 mi Calm Calm - N/A   Overcast
11:56 PM 39.9 °F - 36.0 °F 86% 30.36 in 10.0 mi Calm Calm - N/A   Overcast